Location: Trebic
(49.2170°N, 15.8830°E)
Time: 22:04:04
(UTC+01:00)

Transit 4A - Pass Details

Date: 02 November 2020
Orbit: 862 x 982 km, 66.8° (Epoch: 30 November)

Event Time Altitude Azimuth Distance (km) Brightness Sun altitude
Rises 17:06:37 0° 280° (W) 3,656 12.4 -6.0°
Reaches altitude 10° 17:10:00 10° 297° (WNW) 2,725 11.1 -6.5°
Maximum altitude 17:14:28 19° 342° (NNW) 2,136 9.9 -7.2°
Drops below altitude 10° 17:18:58 10° 26° (NNE) 2,746 10.0 -8.0°
Enters shadow 17:21:27 - 40° (NE) 3,412 10.4 -8.4°
